This is the latest recevied weather packets stored in our database for station/object OK2ILA-3. If no packets are shown the sender has not sent any weather packets the latest 10 day(s).
| Time | Temp. | Humidity | Pressure | Rain* | Wind** | Luminosity | Snow |
|---|---|---|---|---|---|---|---|
| 1778159913 | 20° C | 1% | 3840 hPa | 0 mm | - | - | - |
| 1778159306 | 18.89° C | 11% | 3840 hPa | 0 mm | - | - | - |
| 1778158701 | 18.89° C | 55% | 361.6 hPa | 0 mm | - | - | - |
| 1778158097 | 18.89° C | 1% | 361.6 hPa | 0 mm | - | - | - |
| 1778157493 | 18.89° C | 3% | 3277.3 hPa | 0 mm | - | - | - |
| 1778156888 | 20° C | 1% | 3690.6 hPa | 0 mm | - | - | - |
| 1778156284 | 19.44° C | 85% | 3690.6 hPa | 0 mm | - | - | - |
| 1778155679 | 19.44° C | 5% | 4.3 hPa | 0 mm | - | - | - |
| 1778155073 | 20.56° C | 100% | 3609.8 hPa | 0 mm | - | - | - |
| 1778154465 | 20° C | 3% | 3609.8 hPa | 0 mm | - | - | - |
| 1778153860 | 20.56° C | 10% | 870.4 hPa | 0 mm | - | - | - |
| 1778153254 | 20.56° C | 53% | 204.8 hPa | 0 mm | - | - | - |
| 1778152651 | 20° C | 53% | 8.1 hPa | 0 mm | - | - | - |
| 1778152047 | 20° C | 100% | 2048.5 hPa | 0 mm | - | - | - |
| 1778151439 | 19.44° C | 12% | 2052.2 hPa | 0 mm | - | - | - |
| 1778150835 | 18.89° C | 53% | 1096 hPa | 0 mm | - | - | - |
| 1778150230 | 20.56° C | 79% | 1096 hPa | 0 mm | - | - | - |
| 1778149624 | 20.56° C | 12% | 1096 hPa | 0 mm | - | - | - |
| 1778149020 | 19.44° C | 5% | 0 hPa | 0 mm | - | - | - |
| 1778148415 | 19.44° C | 53% | 0 hPa | 0 mm | - | - | - |
| 1778147809 | 20° C | 71% | 0 hPa | 0 mm | - | - | - |
| 1778147201 | 19.44° C | 1% | 460.8 hPa | 0 mm | - | - | - |
| 1778146597 | 20° C | 51% | 460.8 hPa | 0 mm | - | - | - |
| 1778145991 | 20° C | 3% | 4509.9 hPa | 0 mm | - | - | - |
| 1778145383 | 21.11° C | 12% | 0 hPa | 0 mm | - | - | - |
* Rain latest 24 hours (hover to see other rain measurements)
** Current wind speed in m/s (hover to see current wind gust speed)